Regional Weather Roundup
Issued by NWS

Home | Current Version | Previous Version | Graphics & Text | Print | Product List | Glossary On
Versions: 1 2 3 4 5 6 7 8 9 10 11 12 13 14 15 16 17 18 19 20 21 22 23 24 25 26 27 28 29 30 31 32 33 34 35 36 37 38 39 40 41 42 43 44 45 46 47 48 49 50
000
ASUS45 KCYS 150010
RWRWY

WYOMING REGIONAL WEATHER ROUNDUP
NATIONAL WEATHER SERVICE CHEYENNE WY
600 PM MDT SUN SEP 14 2014

NOTE:  "FAIR" INDICATES FEW OR NO CLOUDS BELOW 12,000 FEET
WITH NO SIGNIFICANT WEATHER AND/OR OBSTRUCTIONS TO VISIBILITY.

WYZ001-150100-
YELLOWSTONE NATIONAL PARK

CITY           SKY/WX    TMP DP  RH WIND       PRES   REMARKS
LK YELLOWSTONE   N/A     64  16  15 NW6       30.24R
6HR MIN TEMP:  61; 6HR MAX TEMP:  66;

W YELLOWSTONE  NOT AVBL

$$
WYZ002>013-054>058-071-098>099-150100-
NORTHERN WYOMING

CITY           SKY/WX    TMP DP  RH WIND       PRES   REMARKS
JACKSON        SUNNY     72  19  14 SW9G17    30.15R
CODY           SUNNY     61  37  41 N10       30.12R
GREYBULL       SUNNY     70  36  28 NW17      30.04R
6HR MIN TEMP:  59; 6HR MAX TEMP:  72;

WORLAND        SUNNY     69  37  30 N8        30.06R
6HR MIN TEMP:  56; 6HR MAX TEMP:  71;

SHERIDAN       SUNNY     65  41  41 N7        30.10R
6HR MIN TEMP:  55; 6HR MAX TEMP:  65;

BUFFALO        SUNNY     58  40  51 N14G24    30.13R
6HR MIN TEMP:  54; 6HR MAX TEMP:  60;

GILLETTE       SUNNY     62  42  47 N6        30.10R
6HR MIN TEMP:  53; 6HR MAX TEMP:  64;

HULETT         FAIR      57  41  54 MISG      30.11
NEWCASTLE      FAIR      57  37  47 S3        30.10

$$
WYZ014>020-022>026-101>103-150100-
CENTRAL WYOMING

CITY           SKY/WX    TMP DP  RH WIND       PRES   REMARKS
BIG PINEY      SUNNY     73  22  14 NW14      30.18R
6HR MIN TEMP:  65; 6HR MAX TEMP:  78;

PINEDALE       CLEAR     70  19  14 NW16G24   30.19R
DUBOIS         FAIR      68  10  10 NW16G25   30.15R
LANDER         SUNNY     73  36  25 NE6       30.05R
6HR MIN TEMP:  62; 6HR MAX TEMP:  82;

RIVERTON       SUNNY     70  32  24 NE17      30.05R
6HR MIN TEMP:  59; 6HR MAX TEMP:  74;

CASPER         SUNNY     70  37  29 N13       30.07R
6HR MIN TEMP:  68; 6HR MAX TEMP:  81;

DOUGLAS        SUNNY     62  43  49 NE14      30.08R
6HR MIN TEMP:  58; 6HR MAX TEMP:  73;


$$
WYZ021-027>030-104>119-150100-
SOUTHERN WYOMING

CITY           SKY/WX    TMP DP  RH WIND       PRES   REMARKS
EVANSTON       PTSUNNY   74  29  19 W10G21    30.21R
6HR MIN TEMP:  73; 6HR MAX TEMP:  78;

KEMMERER       PTCLDY   N/A N/A N/A W16       30.21S
FORT BRIDGER   FAIR      75  26  16 NW14G21   30.22R
ROCK SPRINGS   MOSUNNY   75  23  14 W22G29    30.15R
6HR MIN TEMP:  75; 6HR MAX TEMP:  81;

DIXON          FAIR      72  39  30 W8        30.17R
RAWLINS        MOSUNNY   75  23  14 W17G29    30.12R
6HR MIN TEMP:  73; 6HR MAX TEMP:  80;

SARATOGA       FAIR      72  28  20 W18G28    30.16R
LARAMIE        PTSUNNY   66  36  32 SW15      30.17S
6HR MIN TEMP:  64; 6HR MAX TEMP:  76; 6HR PCP: TRACE;

CHEYENNE       CLOUDY    71  40  32 NW9       30.11R
6HR MIN TEMP:  66; 6HR MAX TEMP:  84; 6HR PCP: TRACE;

TORRINGTON     PTSUNNY   64  46  52 NE14      30.04R
6HR MIN TEMP:  51; 6HR MAX TEMP:  69;

PINE BLUFFS    FAIR      68  50  52 N15       30.07R

$$



USA.gov is the U.S. government's official web portal to all federal, state and local government web resources and services.